HST

Last updated on Wed Jul 02 2025 00:02:14 GMT+0000 (Coordinated Universal Time)

1 20580U 90037B 25182.57024441 .00004963 00000+0 18251-3 0 9990 2 20580 28.4687 307.4156 0001750 249.8539 110.1867 15.25448183734886
UTC large
Height (km)
Speed (km/s)
/
Latitude / Longitude
Inclination (degrees)
Orbital Period (minutes)
Azimuth
Elevation
Range (km)
Doppler Factor

Next 0 passes for location: London (51.5072 / 0.1276)

Sorry there are no passes over London.